Location: Sigmaringen
(48.0900°N, 9.2120°E)
Time: 03:04:21
(UTC+01:00)

Envisat - Visible Passes

Search period start: 20 February 2018 00:00
Search period end: 02 March 2018 00:00
Orbit: 764 x 766 km, 98.2° (Epoch: 19 February)

Date Brightness Start Highest point End Pass type
(mag) Time Alt. Az. Time Alt. Az. Time Alt. Az.
20 Feb 3.6 18:53:29 10° SE 18:58:03 35° ENE 19:02:38 10° N visible
20 Feb 4.5 20:32:25 10° SSW 20:37:03 35° W 20:41:43 10° NNW visible
21 Feb 3.2 19:55:06 10° S 20:00:11 73° WSW 20:05:17 10° NNW visible
22 Feb 3.0 19:18:32 10° SSE 19:23:30 56° ENE 19:28:28 10° N visible
22 Feb 5.3 20:59:00 10° SW 21:02:52 22° W 21:06:45 10° NW visible
23 Feb 3.8 18:42:41 10° ESE 18:47:00 29° ENE 18:51:20 10° N visible
23 Feb 4.1 20:21:02 10° S 20:25:51 43° W 20:30:43 10° NNW visible
24 Feb 2.9 19:43:57 10° SSE 19:49:01 89° WSW 19:54:09 10° NNW visible
24 Feb 5.9 21:26:32 10° WSW 21:28:47 13° W 21:31:03 10° WNW visible
25 Feb 3.3 19:07:35 10° SE 19:12:24 46° ENE 19:17:15 10° N visible
25 Feb 5.0 20:47:22 10° SSW 20:51:37 26° W 20:55:54 10° NW visible
26 Feb 4.1 18:31:57 10° ESE 18:35:58 24° ENE 18:40:00 10° N visible
26 Feb 3.7 20:09:42 10° S 20:14:40 54° W 20:19:40 10° NNW visible
27 Feb 2.9 19:32:50 10° SSE 19:37:53 75° ENE 19:43:00 10° N visible
27 Feb 5.7 21:14:24 10° SW 21:17:30 16° W 21:20:37 10° NW visible
28 Feb 3.5 18:56:41 10° SE 19:01:20 38° ENE 19:06:00 10° N visible
28 Feb 4.6 20:35:52 10° SSW 20:40:24 32° W 20:44:58 10° NNW visible
01 Mar 3.3 19:58:27 10° S 20:03:29 67° WSW 20:08:34 10° NNW visible
